Weather History for K12N - May, 2013

Change the Weather History Date:

Wednesday, May 29, 2013

  Actual Average (KFWN) Record (KFWN)
Temperature  
Mean Temperature 70 °F -  
Max Temperature 82 °F 74 °F 91 °F (2006)
Min Temperature 57 °F 48 °F 35 °F (1956)
Cooling Degree Days 4    
Growing Degree Days 20 (Base 50)    
Moisture  
Dew Point 62 °F    
Average Humidity 81    
Maximum Humidity 97    
Minimum Humidity 54    
Precipitation  
Precipitation 0.00 in - - ()
Sea Level Pressure  
Sea Level Pressure 30.06 in    
Wind  
Wind Speed 2 mph (SW)    
Max Wind Speed 12 mph    
Max Gust Speed 17 mph    
Averages and records for this station are not official NWS values.
T = Trace of Precipitation, MM = Missing Value Source: NWS Daily Summary

Daily Weather History Graph

Daily Weather History Graph

Search for Another Location

Airport or City:

Trip Planner

Search our weather history database for the weather conditions in past years. The results will help you decide how hot, cold, wet, or windy it might be!

Date:

Astronomy

May. 29, 2013 Rise Set
Actual Time 5:30 AM EDT 8:22 PM EDT
Civil Twilight 4:57 AM EDT 8:55 PM EDT
Nautical Twilight 4:16 AM EDT 9:36 PM EDT
Astronomical Twilight 3:29 AM EDT 10:24 PM EDT
Moon No Moon Rise 10:28 AM EDT (5/29)
Length of Visible Light 15h 57m
Length of Day
14h 52m
Waning Gibbous, 73% of the Moon is Illuminated
May 29
Waning Gibbous
May 31
Last Quarter
Jun 8
New
Jun 16
First Quarter
Jun 23
Full

Hourly Weather History & Observations

Time (EDT) Temp. Heat Index Dew Point Humidity Pressure Visibility Wind Dir Wind Speed Gust Speed Precip Events Conditions
12:54 AM 57.0 °F - 55.0 °F 93% 30.13 in - Calm Calm - N/A   Unknown
1:54 AM 57.0 °F - 55.0 °F 93% 30.11 in - Calm Calm - N/A   Unknown
2:54 AM 57.0 °F - 55.9 °F 96% 30.09 in - Calm Calm - N/A   Unknown
3:54 AM 57.0 °F - 55.9 °F 96% 30.08 in - Calm Calm - N/A   Unknown
4:54 AM 57.0 °F - 55.9 °F 96% 30.08 in - Calm Calm - N/A   Unknown
5:54 AM 57.0 °F - 55.9 °F 96% 30.09 in - Calm Calm - N/A   Unknown
6:54 AM 57.9 °F - 57.0 °F 97% 30.08 in - SW 3.5 mph - N/A   Unknown
7:54 AM 59.0 °F - 57.9 °F 96% 30.09 in - Calm Calm - N/A   Unknown
8:54 AM 60.1 °F - 59.0 °F 96% 30.10 in - Calm Calm - N/A   Unknown
9:54 AM 64.0 °F - 62.1 °F 93% 30.09 in - Variable 4.6 mph - N/A   Unknown
10:54 AM 68.0 °F - 63.0 °F 84% 30.09 in - Variable 5.8 mph - N/A   Unknown
11:54 AM 73.9 °F - 64.9 °F 73% 30.07 in - WSW 9.2 mph - N/A   Unknown
12:54 PM 75.0 °F - 63.0 °F 66% 30.07 in - SSW 11.5 mph 17.3 mph N/A   Unknown
1:54 PM 77.0 °F - 64.0 °F 64% 30.06 in - SSW 6.9 mph - N/A   Unknown
2:54 PM 80.1 °F 82.1 °F 66.0 °F 62% 30.05 in - SW 9.2 mph - N/A   Unknown
3:54 PM 81.0 °F 83.0 °F 66.0 °F 60% 30.04 in - Variable 6.9 mph - N/A   Unknown
4:54 PM 81.0 °F 82.7 °F 64.9 °F 58% 30.03 in - SW 6.9 mph - N/A   Unknown
5:54 PM 82.9 °F 85.0 °F 66.0 °F 56% 30.01 in - SW 8.1 mph - N/A   Unknown
6:54 PM 82.0 °F 83.4 °F 64.0 °F 54% 30.01 in - SSW 5.8 mph - N/A   Unknown
7:54 PM 75.0 °F - 66.9 °F 76% 30.01 in - Calm Calm - N/A   Unknown
8:54 PM 71.1 °F - 66.0 °F 84% 30.02 in - Calm Calm - N/A   Unknown
9:54 PM 70.0 °F - 64.0 °F 81% 30.03 in - Calm Calm - N/A   Unknown
10:54 PM 66.9 °F - 64.0 °F 90% 30.06 in - Calm Calm - N/A   Unknown
11:54 PM 66.0 °F - 64.0 °F 93% 30.06 in - Calm Calm - N/A   Unknown